Погода Кемь-Порт

Погода Кемь-Порт : погода сейчас, прогноз погоды и архив. Всё, что Вы хотите узнать о погоде Кемь-Порт!

Поиск расширенной информации на нашем сайте:

Другие новости

Новости СМИ2

Главная страница сайта

Новости сайта

02.10.2013

Напоминаем, что на нашем новом сайте вы можете получить высокодетализированные прогнозы погоды по пунктам России, СНГ и мира (включающие важные для авиации метеовеличины, такие как направление и скорость ветра, видимость, явления погоды, количество и форма облачности, нижняя и верхняя граница облачности), а также ознакомиться с разнообразными материалами по авиационной метеорологии и подборкой полезных ссылок на эту тему.

Сайт Метеоцентр.Азия посвящён разработке технологий оптимизации авиаметеорологического обслуживания, включая проектирование и перспективное создание нескольких автоматизированных авиаметеорологических систем:
- система выпуска высокодетальных прогностических карт явлений погоды для нижнего воздушного пространства по России и ближнему зарубежью;
- система верификации прогнозов TAF (выпускаемых синоптиками официальных АМСГ РФ и ближнего зарубежья) и AUTOTAF (выпускаемых сайтом Метеоцентр.Азия) - выявление ошибок, онлайн-сопоставление с фактической погодой METAR, автоматическое внесение коррективов в прогнозы при резком отклонении фактической погоды от прогноза, подсчёт оправдываемости прогнозов по элементам и в целом;
- система обработки, анализа и отображения авиаметеорологической информации для применения провайдерами метеорологической информации.

Рекомендуем: Собаки и кошки из городского центра передержки.

Погода Кемь-Порт - сегодня

Время (UTC), дата Ветер
(°,м/с) 
Видим.   Явления Облачность Т
(°С)
Тd
(°С)
f(%) Тe
(°С)
Pmin
(гПа)
dP
(гПа)
Po
(мм)
O2
(г/м3)
Тmin Tmax R s Состояние
почвы
15 19.01.17 230 (ЮЗ) 6-11{12}  4000 м  слаб. снег  10/10 570 м 
[Frnb|Ns]
+0.4 +0.1 98 -3  986.1  -6.7  739  297      0.4     
18 19.01.17 280 (З) 9-14{14}  10 км  в посл. час ливневой снег  10/8 300 м средняя 
[Sc|Ac As]
+1 -2.7 76 -3  984.8  -1.3  738  297    -2.8  0.4     
21 19.01.17 290 (З) 9-16{19}  10 км  позёмок  10/0 средняя 
[Ac As]
-0.8 -5.3 71 -6  998.6  3.8  741  300           
00 20.01.17 290 (З) 10-18{22}  10 км  позёмок  10/0 средняя 
[Ac As]
-3.2 -8.9 65 -9  992.6  3.8  744  304           
03 20.01.17 290 (З) 9-15{18}  10 км    10/8 300 м средняя 
[Sc|Ac As]
-4.3 -10.8 60 -10  997.5  4.9  747  307  -4.3    0.0     
06 20.01.17 280 (З) 6-10{15}  10 км    ясно 
-6.9 -12.7 63 -12  999.7  2.1  749  311  -6.9      14  равномерный
мокрый или
старый снег
100% 
09 20.01.17 260 (З) 6{12}  20000 м    ясно 
-7.8 -12.8 67 -13  1000.1  0.4  749  312           
12 20.01.17 250 (З) 5{12}  20000 м    ясно 
-7 -10.9 74 -11  998.3  -1.8  748  310           
15 20.01.17 260 (З) 20000 м    9/9 600 м 
[Sc]
-6.1 -9 80 -10  996.9  -1.4  747  309           
18 20.01.17 290 (З) 7-13{13}  20000 м    ясно 
-5.4 -10.5 67 -10  997.1  0.1  747  308    -5.3       
21 20.01.17 270 (З) 7-12{14}  20000 м    ясно 
-6.5 -11.1 70 -12  997.3  0.4  747  310           
00 21.01.17 280 (З) 8-13{15}  20000 м    ясно 
-6.4 -11.6 67 -12  997.5  0.1  747  309           
03 21.01.17 280 (З) 8-13{14}  20000 м    ясно 
-7 -11.9 68 -13  998.2  0.9  748  310  -7         
06 21.01.17 290 (З) 7-12{15}  20000 м    ясно 
-7 -11.6 70 -12  1000  1.8  749  311  -7.5      14  равномерный
мокрый или
старый снег
100% 
09 21.01.17 290 (З) 8-13{15}  20000 м    1/0 средняя 
[Ac lent]
-5.9 -11.3 66 -11  1002.4  2.4  751  310           
12 21.01.17 280 (З) 9-15{16}  20000 м    ясно 
-5.2 -11.1 63 -11  1003.9  1.4  752  310           
15 21.01.17 280 (З) 8-16{17}  20000 м    ясно 
-5.2 -10.3 67 -11  1005.6  1.7  754  311           
18 21.01.17 280 (З) 7-11{17}  20000 м    ясно 
-6.6 -10.9 71 -12  1006.5  754  312    -4.8       
21 21.01.17 280 (З) 6{13}  20000 м    ясно 
-8.3 -12.1 74 -13  1006.7  0.2  754  315           
00 22.01.17 270 (З) 6{11}  20000 м    ясно 
-9.3 -12.6 77 -15  1006  -0.7  754  316           
03 22.01.17 270 (З) 6{11}  20000 м    ясно 
-9.8 -12.8 79 -15  1004.3  -1.7  753  316  -10         
06 22.01.17 280 (З) 6{12}  20000 м    ясно 
-8.8 -12.1 77 -14  1003.6  -0.7  752  314  -10      14  равномерный
мокрый или
старый снег
100% 
09 22.01.17 270 (З) 4{11}  20000 м    6/0 средняя 
[Ac As]
-8.8 -12.1 77 -13  1003.6  1.2  753  315           
12 22.01.17 260 (З) 20000 м    ясно 
-7.4 -10.9 76 -11  1006.3  1.5  754  313           
15 22.01.17 270 (З) 20000 м    3/0 средняя 
[Ac trans]
-9.1 -11.6 82 -13  1006.5  0.2  754  315           
Время (UTC), дата Ветер
(°,м/с) 
Видим.   Явления Облачность Т
(°С)
Тd
(°С)
f(%) Тe
(°С)
Pmin
(гПа)
dP
(гПа)
Po
(мм)
O2
(г/м3)
Тmin Tmax R s Состояние
почвы

Для получения пояснительной информации подведите курсор к названию столбца.

ПОГОДА Кемь-Порт - архив

Всё, что Вы хотите узнать о погоде Кемь-Порт - удобно и подробно!

Выберите нужную дату (начиная с 1 января 2015* года) и нажмите кнопку "Найти".
Будут отображены архивные сводки погоды по пункту Кемь-Порт, начиная с указанной даты.


Отображать данные в формате CSV (для использования в таблицах Excel)


Внимание! Наш архив погоды предназначен исключительно для личного некоммерческого использования в познавательных целях. Если Вам необходимы официальные справки о состоянии погоды (для производственных, юридических, коммерческих и т.п. целей), обращайтесь в органы Росгидромета.

*Примечание: данная дата относится к архиву по метеостанциям СССР (Россия, СНГ, Балтия).
Архив по метеостанциям Зарубежной Европы и Азии (кроме Китая) хранится 10 дней, по другим регионам земного шара (Китай, Африка, Америка, Австралия, Океания) - 1 день.

Кемь-Порт - район местоположения метеостанции


Название, широта, долгота, высота метеостанции:
Кемь-Порт 64.98°ш. 34.80°д. 8 м над ур. моря [Российская Федерация]

Дополнительная информация

В oтличие oт бoльшинства пoгoдных сайтoв мы публикуем пoдрoбную метеoинфoрмацию в детальнoм прoфессиoнальнoм фoрмате.

Характеристики температуры и влажнoсти вoздуха измеряются на высoте 2 м в тени вдали oт зданий и деревьев.
Скoрoсть ветра измеряется на высoте 10 м (на урoвне рoста челoвека скoрoсть ветра ниже в 1.5-2 раза). Если метеoстанция нахoдится в гoрoде или в лесу, тo скoрoсть ветра занижена на 2-4 м/с пo сравнению с oткрытым местoм. Скoрoсть ветра над акватoриями крупных рек и oзёр, а также на вершинах хoлмoв на 2-5 м/с выше, чем в oбычных услoвиях.
Атмoсфернoе давление в разных тoчках местнoсти мoжет значительнo oтличаться oт давления на метеoстанции, в зависимoсти oт услoвий рельефа (при пoдъёме на 10 м давление пoнижается примернo на 1 мм рт.ст.).